{"data":{"norad_id":63010,"epoch":"2026-09-21T22:01:37.322976Z","epoch_age_seconds":42316,"freshness":"FRESH","line1":"1 63010U 25032F   26264.91779309  .00204821  00000+0  15498-2 0  9992","line2":"2 63010  43.0001  92.7022 0004085 267.4311  92.6089 15.71001678 93072","mean_motion":15.71001678,"eccentricity":0.0004085,"inclination_deg":43.0001,"raan_deg":92.7022,"arg_perigee_deg":267.4311,"mean_anomaly_deg":92.6089,"bstar":0.0015498,"rev_number":9307,"period_min":91.661264285422,"perigee_km":353.28208677438,"apogee_km":358.78390366047,"semimajor_km":6734.1699952174,"source":"CELESTRAK","updated_at":"2026-09-22T09:00:49.739701Z"}}